Location: Unspecified
(50.5678°N, 9.7144°E)
Time: 03:53:37
(UTC+01:00)

ISS - Pass Details

Date: 27 July 2018
Orbit: 403 x 411 km, 51.6° (Epoch: 21 February)

Event Time Altitude Azimuth Distance (km) Brightness Sun altitude
Rises 22:33:22 0° 273° (W) 2,343 0.8 -10.5°
Reaches altitude 10° 22:35:27 10° 276° (W) 1,486 -0.2 -10.7°
Maximum altitude 22:38:47 71° 0° (N) 444 -3.5 -11.1°
Drops below altitude 10° 22:42:09 10° 86° (E) 1,499 -1.3 -11.4°
Enters shadow 22:42:43 - 87° (E) 1,731 -1.0 -11.5°
